Leadville, CO

8:13 PM MDT on June 26, 2017 (GMT -0600)
Lake County

Weather History for KLXV - May, 2014

Change the Weather History Date:

Thursday, May 1, 2014

  Actual Average Record
Temperature  
Mean Temperature 25 °F -  
Max Temperature 39 °F 49 °F 64 °F (1992)
Min Temperature 11 °F 23 °F 11 °F (2014)
Degree Days  
Heating Degree Days 40 29  
Month to date heating degree days 40 29  
Since 1 July heating degree days 9926 10030  
Cooling Degree Days 0 0  
Month to date cooling degree days 0 0  
Year to date cooling degree days 0 0  
Moisture  
Dew Point 10 °F    
Average Humidity 60    
Maximum Humidity 88    
Minimum Humidity 32    
Precipitation  
Precipitation 0.00 in 0.03 in 0.44 in (1999)
Month to date precipitation 0.00 0.03  
Year to date precipitation 6.71 3.36  
Sea Level Pressure  
Sea Level Pressure 30.20 in    
Wind  
Wind Speed 9 mph (North)    
Max Wind Speed 25 mph    
Max Gust Speed 34 mph    
Visibility 10 miles    
Events      
T = Trace of Precipitation, MM = Missing Value Source: NWS Daily Summary

Daily Weather History Graph

Daily Weather History Graph

Search for Another Location

Airport or City:

Trip Planner

Search our weather history database for the weather conditions in past years. The results will help you decide how hot, cold, wet, or windy it might be!

Date:

Astronomy

May. 01, 2014 Rise Set
Actual Time 6:06 AM MDT 7:58 PM MDT
Civil Twilight 5:37 AM MDT 8:27 PM MDT
Nautical Twilight 5:02 AM MDT 9:02 PM MDT
Astronomical Twilight 4:25 AM MDT 9:40 PM MDT
Moon 7:56 AM MDT (5/1) 10:33 PM MDT (5/1)
Length of Visible Light 14h 49m
Length of Day
13h 51m
Waxing Crescent, 7% of the Moon is Illuminated
May 1
Waxing Crescent
May 6
First Quarter
May 14
Full
May 21
Last Quarter
May 28
New

Hourly Weather History & Observations

Time (MDT) Temp. Windchill Dew Point Humidity Pressure Visibility Wind Dir Wind Speed Gust Speed Precip Events Conditions
12:53 AM 17.1 °F 10.0 °F 10.0 °F 74% 30.27 in 10.0 mi NNE 4.6 mph - N/A   Clear
1:53 AM 14.0 °F 6.5 °F 10.0 °F 84% 30.27 in 10.0 mi NE 4.6 mph - N/A   Clear
2:53 AM 12.0 °F 2.7 °F 8.1 °F 84% 30.26 in 10.0 mi NNE 5.8 mph - N/A   Clear
3:53 AM 10.9 °F 0.2 °F 7.0 °F 84% 30.26 in 10.0 mi North 6.9 mph - N/A   Clear
4:53 AM 12.9 °F 2.6 °F 8.1 °F 81% 30.25 in 10.0 mi NNE 6.9 mph - N/A   Clear
5:53 AM 12.9 °F 2.6 °F 8.1 °F 81% 30.29 in 10.0 mi North 6.9 mph - N/A   Mostly Cloudy
6:53 AM 12.0 °F 4.1 °F 7.0 °F 80% 30.30 in 10.0 mi NE 4.6 mph - N/A   Partly Cloudy
7:53 AM 21.9 °F 13.4 °F 10.0 °F 60% 30.22 in 10.0 mi North 6.9 mph - N/A   Clear
8:53 AM 24.1 °F 13.7 °F 8.1 °F 51% 30.21 in 10.0 mi NW 10.4 mph - N/A   Clear
9:53 AM 28.0 °F 18.1 °F 7.0 °F 41% 30.18 in 10.0 mi North 11.5 mph - N/A   Clear
10:53 AM 30.9 °F 21.7 °F 5.0 °F 33% 30.15 in 10.0 mi NNW 11.5 mph 20.7 mph N/A   Clear
11:53 AM 32.0 °F 19.8 °F 6.1 °F 34% 30.15 in 10.0 mi North 20.7 mph 27.6 mph N/A   Clear
12:53 PM 33.1 °F 23.9 °F 9.0 °F 37% 30.17 in 10.0 mi North 12.7 mph 24.2 mph N/A   Overcast
1:53 PM 35.1 °F 25.9 °F 10.0 °F 35% 30.17 in 10.0 mi NW 13.8 mph 25.3 mph N/A   Overcast
2:53 PM 37.0 °F 26.4 °F 10.9 °F 34% 30.16 in 10.0 mi North 20.7 mph 26.5 mph N/A   Overcast
3:53 PM 37.0 °F 28.5 °F 10.9 °F 34% 30.18 in 10.0 mi NNW 13.8 mph 26.5 mph N/A   Mostly Cloudy
4:53 PM 36.0 °F 25.3 °F 12.9 °F 39% 30.18 in 10.0 mi NNW 19.6 mph 32.2 mph N/A   Scattered Clouds
5:53 PM 37.0 °F 27.7 °F 12.0 °F 36% 30.17 in 10.0 mi North 16.1 mph 23.0 mph N/A   Mostly Cloudy
6:53 PM 37.0 °F 28.9 °F 12.0 °F 36% 30.17 in 10.0 mi NNW 12.7 mph 19.6 mph N/A   Overcast
7:53 PM 33.1 °F 26.9 °F 12.0 °F 42% 30.14 in 10.0 mi NW 6.9 mph - N/A   Mostly Cloudy
8:53 PM 28.9 °F - 12.0 °F 49% 30.17 in 10.0 mi Calm Calm - N/A   Clear
9:53 PM 28.0 °F - 12.0 °F 51% 30.16 in 10.0 mi Calm Calm - N/A   Partly Cloudy
10:53 PM 28.0 °F - 10.9 °F 49% 30.13 in 10.0 mi Calm Calm - N/A   Clear
11:53 PM 26.1 °F 20.5 °F 10.9 °F 53% 30.14 in 10.0 mi ENE 4.6 mph - N/A   Clear